• En España
  • Lista de países
  • Para 7 días
  • Temperatura del agua
  • Mapa Satelital
  • El tiempo en el mapa
  • Informadores
  • user-avatar
    Iniciar sesión

    Tiempo cada hora Vidin

    Hoy, 25 Septiembre, Martes

    Tiempo Temperatura Precipitaciones Viento Presión Humedad
    00:00 +11°C° 0 mm 6 mps 766 mmHg 60%
    01:00 +10°C° 0 mm 6 mps 767 mmHg 63%
    02:00 +10°C° 0 mm 6 mps 767 mmHg 65%
    03:00 +9°C° 0 mm 6 mps 767 mmHg 66%
    04:00 +9°C° 0 mm 5 mps 768 mmHg 66%
    05:00 +8°C° 0 mm 5 mps 768 mmHg 67%
    06:00 +9°C° 0 mm 6 mps 768 mmHg 63%
    07:00 +10°C° 0 mm 6 mps 768 mmHg 59%
    08:00 +10°C° 0 mm 6 mps 769 mmHg 56%
    09:00 +13°C° 0 mm 6 mps 769 mmHg 48%
    10:00 +14°C° 0 mm 7 mps 769 mmHg 41%
    11:00 +16°C° 0 mm 7 mps 769 mmHg 34%
    12:00 +17°C° 0 mm 7 mps 768 mmHg 31%
    13:00 +17°C° 0 mm 7 mps 768 mmHg 29%
    14:00 +18°C° 0 mm 7 mps 768 mmHg 26%
    15:00 +18°C° 0 mm 7 mps 768 mmHg 27%
    16:00 +17°C° 0 mm 6 mps 768 mmHg 27%
    17:00 +17°C° 0 mm 6 mps 768 mmHg 27%
    18:00 +15°C° 0 mm 5 mps 769 mmHg 32%
    19:00 +14°C° 0 mm 4 mps 770 mmHg 36%
    20:00 +12°C° 0 mm 3 mps 771 mmHg 40%
    21:00 +11°C° 0 mm 3 mps 771 mmHg 43%
    22:00 +10°C° 0 mm 2 mps 772 mmHg 45%
    23:00 +9°C° 0 mm 2 mps 772 mmHg 48%

    Mañana, 26 Septiembre, Miércoles

    Tiempo Temperatura Precipitaciones Viento Presión Humedad
    00:00 +9°C° 0 mm 2 mps 772 mmHg 49%
    01:00 +8°C° 0 mm 2 mps 773 mmHg 51%
    02:00 +9°C° 0 mm 1 mps 773 mmHg 52%
    03:00 +8°C° 0 mm 1 mps 773 mmHg 53%
    04:00 +8°C° 0 mm 1 mps 773 mmHg 54%
    05:00 +7°C° 0 mm 1 mps 773 mmHg 55%
    06:00 +9°C° 0 mm 1 mps 773 mmHg 52%
    07:00 +10°C° 0 mm 1 mps 773 mmHg 49%
    08:00 +11°C° 0 mm 1 mps 774 mmHg 46%
    09:00 +13°C° 0 mm 1 mps 773 mmHg 41%
    10:00 +15°C° 0 mm 1 mps 773 mmHg 36%
    11:00 +18°C° 0 mm 1 mps 773 mmHg 31%
    12:00 +19°C° 0 mm 1 mps 773 mmHg 28%
    13:00 +19°C° 0 mm 1 mps 772 mmHg 25%
    14:00 +19°C° 0 mm 2 mps 772 mmHg 23%
    15:00 +19°C° 0 mm 2 mps 771 mmHg 23%
    16:00 +19°C° 0 mm 2 mps 771 mmHg 22%
    17:00 +18°C° 0 mm 2 mps 771 mmHg 22%
    18:00 +16°C° 0 mm 1 mps 771 mmHg 26%
    19:00 +14°C° 0 mm 1 mps 772 mmHg 30%
    20:00 +12°C° 0 mm 1 mps 773 mmHg 34%
    21:00 +12°C° 0 mm 1 mps 773 mmHg 35%
    22:00 +11°C° 0 mm 1 mps 773 mmHg 37%
    23:00 +10°C° 0 mm 1 mps 773 mmHg 38%

    Pasado mañana, 27 Septiembre, Jueves

    Tiempo Temperatura Precipitaciones Viento Presión Humedad
    00:00 +10°C° 0 mm 1 mps 773 mmHg 39%
    01:00 +9°C° 0 mm 1 mps 773 mmHg 41%
    02:00 +9°C° 0 mm 1 mps 773 mmHg 43%
    03:00 +8°C° 0 mm 1 mps 773 mmHg 44%
    04:00 +8°C° 0 mm 1 mps 772 mmHg 46%
    05:00 +8°C° 0 mm 1 mps 772 mmHg 48%
    06:00 +9°C° 0 mm 1 mps 772 mmHg 45%
    07:00 +10°C° 0 mm 1 mps 772 mmHg 43%
    08:00 +11°C° 0 mm 1 mps 772 mmHg 41%
    09:00 +13°C° 0 mm 1 mps 771 mmHg 36%
    10:00 +15°C° 0 mm 1 mps 771 mmHg 32%
    11:00 +17°C° 0 mm 2 mps 770 mmHg 28%
    12:00 +18°C° 0 mm 2 mps 769 mmHg 25%
    13:00 +20°C° 0 mm 2 mps 769 mmHg 23%
    14:00 +21°C° 0 mm 2 mps 768 mmHg 21%
    15:00 +21°C° 0 mm 2 mps 768 mmHg 21%
    16:00 +21°C° 0 mm 2 mps 767 mmHg 21%
    17:00 +22°C° 0 mm 1 mps 767 mmHg 22%
    18:00 +19°C° 0 mm 2 mps 767 mmHg 25%
    19:00 +17°C° 0 mm 2 mps 767 mmHg 28%
    20:00 +15°C° 0 mm 2 mps 767 mmHg 31%
    21:00 +14°C° 0 mm 2 mps 767 mmHg 32%
    22:00 +14°C° 0 mm 1 mps 767 mmHg 33%
    23:00 +13°C° 0 mm 1 mps 767 mmHg 34%

    28 Septiembre, Viernes

    Tiempo Temperatura Precipitaciones Viento Presión Humedad
    00:00 +13°C° 0 mm 1 mps 767 mmHg 36%
    01:00 +12°C° 0 mm 1 mps 766 mmHg 37%
    02:00 +12°C° 0 mm 1 mps 766 mmHg 38%
    03:00 +11°C° 0 mm 0 mps 766 mmHg 38%
    04:00 +11°C° 0 mm 0 mps 766 mmHg 38%
    05:00 +11°C° 0 mm 0 mps 766 mmHg 38%
    06:00 +12°C° 0 mm 0 mps 765 mmHg 37%
    07:00 +14°C° 0 mm 1 mps 765 mmHg 36%
    08:00 +15°C° 0 mm 1 mps 765 mmHg 35%
    09:00 +18°C° 0 mm 1 mps 764 mmHg 32%
    10:00 +20°C° 0 mm 1 mps 764 mmHg 29%
    11:00 +22°C° 0 mm 1 mps 764 mmHg 26%
    12:00 +23°C° 0 mm 1 mps 763 mmHg 26%
    13:00 +24°C° 0 mm 2 mps 762 mmHg 27%
    14:00 +25°C° 0 mm 2 mps 761 mmHg 27%
    15:00 +24°C° 0 mm 2 mps 761 mmHg 28%
    16:00 +24°C° 0 mm 2 mps 761 mmHg 30%
    17:00 +24°C° 0 mm 2 mps 760 mmHg 31%
    18:00 +22°C° 0 mm 1 mps 761 mmHg 35%
    19:00 +20°C° 0 mm 1 mps 761 mmHg 39%
    20:00 +18°C° 0 mm 1 mps 761 mmHg 43%
    21:00 +16°C° 0 mm 1 mps 761 mmHg 44%
    22:00 +16°C° 0 mm 1 mps 761 mmHg 46%
    23:00 +15°C° 0 mm 1 mps 761 mmHg 48%

    29 Septiembre, Sábado

    Tiempo Temperatura Precipitaciones Viento Presión Humedad
    00:00 +15°C° 0 mm 1 mps 761 mmHg 49%
    01:00 +15°C° 0 mm 1 mps 761 mmHg 50%
    02:00 +14°C° 0 mm 1 mps 760 mmHg 51%
    03:00 +14°C° 0 mm 1 mps 760 mmHg 52%
    04:00 +14°C° 0 mm 1 mps 760 mmHg 54%
    05:00 +13°C° 0 mm 1 mps 760 mmHg 55%
    06:00 +14°C° 0 mm 1 mps 760 mmHg 52%
    07:00 +15°C° 0 mm 1 mps 760 mmHg 50%
    08:00 +16°C° 0 mm 1 mps 760 mmHg 48%
    09:00 +20°C° 0 mm 1 mps 760 mmHg 43%
    10:00 +22°C° 0 mm 1 mps 760 mmHg 38%
    11:00 +25°C° 0 mm 2 mps 759 mmHg 33%
    12:00 +26°C° 0 mm 2 mps 759 mmHg 31%
    13:00 +27°C° 0 mm 3 mps 758 mmHg 30%
    14:00 +28°C° 0 mm 3 mps 758 mmHg 28%
    15:00 +27°C° 0 mm 3 mps 758 mmHg 29%
    16:00 +27°C° 0 mm 4 mps 758 mmHg 31%
    17:00 +26°C° 0 mm 4 mps 758 mmHg 32%
    18:00 +23°C° 0 mm 4 mps 758 mmHg 36%
    19:00 +22°C° 0 mm 3 mps 759 mmHg 41%
    20:00 +20°C° 0 mm 3 mps 759 mmHg 45%
    21:00 +19°C° 0 mm 3 mps 759 mmHg 46%
    22:00 +18°C° 0 mm 3 mps 760 mmHg 48%
    23:00 +18°C° 0 mm 3 mps 760 mmHg 49%

    30 Septiembre, Domingo

    Tiempo Temperatura Precipitaciones Viento Presión Humedad
    00:00 +17°C° 0 mm 3 mps 760 mmHg 51%
    01:00 +17°C° 0 mm 2 mps 760 mmHg 52%
    02:00 +16°C° 0 mm 2 mps 760 mmHg 54%
    03:00 +16°C° 0 mm 2 mps 761 mmHg 56%
    04:00 +15°C° 0 mm 2 mps 761 mmHg 58%
    05:00 +15°C° 0 mm 2 mps 761 mmHg 60%
    06:00 +16°C° 0 mm 2 mps 761 mmHg 58%
    07:00 +16°C° 0 mm 2 mps 761 mmHg 56%
    08:00 +17°C° 0 mm 2 mps 762 mmHg 55%
    09:00 +19°C° 0 mm 2 mps 762 mmHg 50%
    10:00 +21°C° 0 mm 2 mps 762 mmHg 45%
    11:00 +24°C° 0 mm 2 mps 762 mmHg 40%
    12:00 +24°C° 0 mm 2 mps 761 mmHg 38%
    13:00 +25°C° 0 mm 2 mps 761 mmHg 35%
    14:00 +26°C° 0 mm 1 mps 760 mmHg 33%
    15:00 +26°C° 0 mm 1 mps 760 mmHg 33%
    16:00 +26°C° 0 mm 1 mps 760 mmHg 34%
    17:00 +26°C° 0 mm 1 mps 759 mmHg 34%
    18:00 +24°C° 0 mm 1 mps 760 mmHg 39%
    19:00 +21°C° 0 mm 1 mps 760 mmHg 45%
    20:00 +19°C° 0 mm 1 mps 760 mmHg 50%
    21:00 +19°C° 0 mm 1 mps 760 mmHg 52%
    22:00 +19°C° 0 mm 1 mps 760 mmHg 54%
    23:00 +18°C° 0 mm 1 mps 760 mmHg 55%
    Mostrar más